Tracking 18630 objects as of 24-May-2017
HD Live streaming from Space Station
objects crossing your sky now

NOAA 1

Track NOAA 1 now!
10-day predictions
NOAA 1 is classified as:


NORAD ID: 4793
Int'l Code: 1970-106A
Perigee: 1,430.5 km
Apogee: 1,479.6 km
Inclination: 101.8 °
Period: 114.8 minutes
Semi major axis: 7826 km
RCS: 3.071 m2 (large)
Launch date: December 11, 1970
Source: United States (US)
Launch site: AIR FORCE WESTERN TEST RANGE (AFWTR)
Your satellite tracking list
Your tracking list is empty





NASA's NSSDC Master Catalog

Two Line Element Set (TLE):
1  4793U 70106A   17144.23033413 -.00000034 +00000-0 +72696-4 0  9995
2  4793 101.8029 209.4341 0031377 304.0982 090.3469 12.53980527125670
Source of the keplerian elements: AFSPC